Back to catalog

ASO-S

AliveScienceSSO
NORAD 54029·PAYLOAD·🇨🇳 China

Launched Oct 8, 2022 from Jiuquan Satellite Launch Center

Loading…

Next Passes (next 24 hours)

TLE

FreshSource: Space-Track

Epoch: Sep 14, 2026, 15:02 UTC

1 54029U 22129A   26257.62641771  .00000089  00000-0  33004-4 0  9993
2 54029  98.2797 261.4472 0014375 172.7678 187.3728 14.52095572208408

Track ASO-S in real time with AllMySat

Download on the App Store